Rolla, MO

12:21 AM CST on November 23, 2017 (GMT -0600)
Rolla National

Weather History for KVIH - December, 2013

Change the Weather History Date:

Friday, December 6, 2013

  Actual Average Record
Temperature  
Mean Temperature 14 °F 36 °F  
Max Temperature 20 °F 46 °F 71 °F (1951)
Min Temperature 8 °F 27 °F 4 °F (1950)
Degree Days  
Heating Degree Days 51 29  
Month to date heating degree days 157 167  
Since 1 July heating degree days 1207 1114  
Cooling Degree Days 0 0  
Month to date cooling degree days 0 0  
Year to date cooling degree days 1125 1246  
Moisture  
Dew Point 10 °F    
Average Humidity 70    
Maximum Humidity 84    
Minimum Humidity 56    
Precipitation  
Precipitation 0.02 in 0.10 in 1.83 in (1956)
Month to date precipitation 0.13 0.61  
Year to date precipitation 39.88 41.58  
Sea Level Pressure  
Sea Level Pressure 30.39 in    
Wind  
Wind Speed 11 mph (North)    
Max Wind Speed 16 mph    
Max Gust Speed 21 mph    
Visibility 6 miles    
Events Snow    
T = Trace of Precipitation, MM = Missing Value Source: NWS Daily Summary

Daily Weather History Graph

Daily Weather History Graph

Search for Another Location

Airport or City:

Trip Planner

Search our weather history database for the weather conditions in past years. The results will help you decide how hot, cold, wet, or windy it might be!

Date:

Astronomy

Dec. 06, 2013 Rise Set
Actual Time 7:09 AM CST 4:46 PM CST
Civil Twilight 6:40 AM CST 5:16 PM CST
Nautical Twilight 6:07 AM CST 5:49 PM CST
Astronomical Twilight 5:35 AM CST 6:21 PM CST
Moon 10:17 AM CST (12/6) 9:16 PM CST (12/6)
Length of Visible Light 10h 36m
Length of Day
9h 37m
Waxing Crescent, 19% of the Moon is Illuminated
Dec 6
Waxing Crescent
Dec 9
First Quarter
Dec 17
Full
Dec 25
Last Quarter
Jan 1
New

Hourly Weather History & Observations

Time (CST) Temp. Windchill Dew Point Humidity Pressure Visibility Wind Dir Wind Speed Gust Speed Precip Events Conditions
12:53 AM 19.9 °F 9.3 °F 12.0 °F 71% 30.30 in 10.0 mi North 9.2 mph - 0.00 in   Overcast
1:53 AM 19.9 °F 10.1 °F 12.0 °F 71% 30.30 in 10.0 mi North 8.1 mph - N/A   Overcast
2:53 AM 19.9 °F 8.6 °F 10.9 °F 68% 30.30 in 10.0 mi North 10.4 mph - N/A   Overcast
3:53 AM 19.9 °F 7.3 °F 10.9 °F 68% 30.29 in 10.0 mi North 12.7 mph - N/A   Overcast
4:53 AM 19.9 °F 7.9 °F 10.9 °F 68% 30.32 in 10.0 mi North 11.5 mph - N/A   Overcast
5:53 AM 19.0 °F 5.6 °F 10.0 °F 68% 30.31 in 10.0 mi North 13.8 mph - N/A   Overcast
6:53 AM 19.0 °F 6.8 °F 10.9 °F 71% 30.35 in 10.0 mi NNW 11.5 mph - N/A   Overcast
7:53 AM 18.0 °F 7.7 °F 10.9 °F 74% 30.36 in 10.0 mi North 8.1 mph - N/A   Overcast
8:39 AM 18.0 °F 4.8 °F 10.9 °F 74% 30.33 in 1.8 mi North 12.7 mph - 0.00 in Snow Light Snow
8:46 AM 18.0 °F 4.2 °F 10.9 °F 74% 30.33 in 1.0 mi North 13.8 mph - 0.00 in Snow Light Snow
8:53 AM 18.0 °F 6.1 °F 10.9 °F 74% 30.39 in 0.8 mi North 10.4 mph - 0.00 in Snow Light Snow
9:00 AM 18.0 °F 4.8 °F 12.0 °F 78% 30.33 in 1.2 mi North 12.7 mph - 0.00 in Snow Light Snow
9:15 AM 18.0 °F 6.1 °F 12.0 °F 78% 30.35 in 2.0 mi NNW 10.4 mph - 0.00 in Snow Light Snow
9:25 AM 17.1 °F 3.6 °F 12.0 °F 81% 30.34 in 1.2 mi North 12.7 mph - 0.00 in Snow Light Snow
9:53 AM 17.1 °F 3.0 °F 12.9 °F 84% 30.39 in 0.8 mi North 13.8 mph - 0.00 in Snow Light Snow
10:32 AM 17.1 °F 5.0 °F 12.9 °F 84% 30.34 in 1.0 mi North 10.4 mph - 0.01 in Snow Light Snow
10:49 AM 17.6 °F 4.3 °F 12.2 °F 79% 30.35 in 0.8 mi North 12.7 mph - 0.01 in Snow Light Snow
10:53 AM 17.1 °F 5.0 °F 12.9 °F 84% 30.41 in 0.8 mi North 10.4 mph - 0.01 in Snow Light Snow
11:04 AM 17.1 °F 5.0 °F 12.9 °F 84% 30.35 in 1.0 mi North 10.4 mph - 0.00 in Snow Light Snow
11:14 AM 17.1 °F 5.8 °F 12.9 °F 84% 30.36 in 0.8 mi North 9.2 mph - 0.00 in Snow Light Snow
11:22 AM 17.1 °F 4.3 °F 12.9 °F 84% 30.36 in 0.8 mi North 11.5 mph - 0.00 in Snow Light Snow
11:50 AM 17.6 °F 5.0 °F 12.2 °F 79% 30.35 in 1.0 mi North 11.5 mph - 0.01 in Snow Light Snow
11:53 AM 17.1 °F 4.3 °F 12.9 °F 84% 30.40 in 1.0 mi North 11.5 mph - 0.01 in Snow Light Snow
12:22 PM 17.1 °F 4.3 °F 12.9 °F 84% 30.32 in 0.8 mi North 11.5 mph - 0.00 in Snow Light Snow
12:53 PM 17.1 °F 4.3 °F 12.9 °F 84% 30.38 in 1.0 mi North 11.5 mph - 0.00 in Snow Light Snow
1:53 PM 17.1 °F 3.0 °F 12.9 °F 84% 30.39 in 1.2 mi North 13.8 mph - 0.00 in Snow Light Snow
2:08 PM 17.1 °F 3.0 °F 12.0 °F 81% 30.35 in 3.0 mi North 13.8 mph - 0.00 in Snow Light Snow
2:29 PM 18.0 °F 4.8 °F 10.9 °F 74% 30.34 in 7.0 mi North 12.7 mph - 0.00 in Snow Light Snow
2:43 PM 18.0 °F 4.8 °F 10.0 °F 71% 30.35 in 10.0 mi NNW 12.7 mph - 0.00 in   Overcast
2:53 PM 18.0 °F 5.4 °F 10.0 °F 71% 30.40 in 10.0 mi NNW 11.5 mph - 0.00 in   Overcast
3:53 PM 18.0 °F 4.8 °F 7.0 °F 62% 30.43 in 10.0 mi North 12.7 mph - N/A   Overcast
4:53 PM 17.1 °F 2.5 °F 5.0 °F 59% 30.45 in 10.0 mi North 15.0 mph - N/A   Overcast
5:53 PM 16.0 °F 4.4 °F 6.1 °F 65% 30.48 in 10.0 mi North 9.2 mph - N/A   Overcast
6:53 PM 16.0 °F 4.4 °F 3.9 °F 59% 30.51 in 10.0 mi North 9.2 mph - N/A   Overcast
7:53 PM 16.0 °F 2.9 °F 3.9 °F 59% 30.53 in 10.0 mi NNW 11.5 mph - N/A   Overcast
8:53 PM 14.0 °F 2.0 °F 1.9 °F 59% 30.55 in 10.0 mi North 9.2 mph - N/A   Overcast
9:53 PM 10.9 °F 1.4 °F 1.0 °F 64% 30.58 in 10.0 mi NNW 5.8 mph - N/A   Clear
10:53 PM 10.0 °F 0.4 °F 1.0 °F 67% 30.61 in 10.0 mi NNW 5.8 mph - N/A   Clear
11:53 PM 9.0 °F -3.2 °F -0.0 °F 67% 30.61 in 10.0 mi North 8.1 mph - N/A   Clear